STARLINK-37630, 69301

Orbit data source: Space-Track

STARLINK-37630, 69301 is a payload satellite owned by SpaceX/Seattle (US) in SSO that was launched on Sat, 30 May 2026 UTC via an FALCON 9 launch vehicle from the Air Force Western Test Range (AFWTR). Payload-class satellites include a variety of spacecraft equipped with specific instruments for various scientific and technological missions. These include communications satellites like Starlink; space stations such as the ISS; scientific satellites like the Hubble; Earth observation satellites from companies like Planet Labs, Umbra, and HawkEye 360; GPS; miniature CubeSats for education and research; and military/defense satellites.

Loading next visibility...
Identifier
69301, 2026-119F
Orbit
SSO
Country
Flag of USUS
Related business
Manufacturer
SpaceX/Seattle
Mission
Operational Commercial Communications
Bus & Motor
STARLINK V2MO, Unknown motor
Mass
575 kg wet, ~530 kg dry
Launch date (UTC)
2026-05-30 (4 months ago)
Launch vehicle
FALCON 9
Launch site
Air Force Western Test Range (AFWTR)
Object type
Payload
Rocket body
Debris
Shape & HBR
Box + 1 Pan, 17.7 m
Radar Cross Section
41.120 m², Large (>1 m²)

Expand to show TLE details & history
Last TLE update: 17 hours ago

TLE from 17 hours ago
0 STARLINK-37630
1 69301U 26119F   26263.58221822  .00009887  00000-0  30808-3 0  9991
2 69301  97.2821 288.2785 0000738 102.3131 257.8194 15.33454748 18671
Epoch: 2026-09-20T13:58Z
TLE epoch observation values (Epoch: 2026-09-20T13:58:23.654Z)
Latitude
-0.00005°
Longitude
79.20562°
Altitude
468.733 km
Speed
7.632 km/s
True Right ascension
19h 13m 06s
True Declination
0° 00' 00"
Sunlit
Object was in daylight at epoch
Visualization orbit readout
Latitude
Unknown
Longitude
Unknown
Altitude
Unknown
Speed
Unknown
Apparent Right ascension
Unknown
Apparent Declination
Unknown
Sunlit
N/A
Visualization observer readout
Local Sidereal Time
00:08:45
Azimuth
Unknown
Elevation
Unknown
Doppler factor
Unknown
Orbital elements
Apogee altitude
462.962 km
Perigee altitude
461.952 km
Semi-major axis
6,840.594 km
Eccentricity
0.00007
Inclination
97.2821°
RAAN
288.2785°
Arg. of periapsis
102.3131°
True anomaly
257.81113°
Mean anomaly
257.8194°
Eccentric anomaly
257.81527°
Mean motion
3.83621 °/min
Orbital period
93.84 mins
BSTAR
0.00030808
Loading maneuver chart data...
Computing Atmospheric mass density...
Loading historical data...
Loading historical data...
Loading historical data...
Loading historical data...
Loading historical data...
Loading historical data...
Loading historical data...

Documentation

Showing up to 5 results
|